Tracking 30074 objects as of 13-Jan-2025
HD Live streaming from Space Station
objects crossing your sky now

CZ-2D R/B

Track CZ-2D R/B now!
10-day predictions


NORAD ID: 54641
Int'l Code: 2022-165B
Perigee: 651.7 km
Apogee: 700.3 km
Inclination: 98.1 °
Period: 98.1 minutes
Semi major axis: 7046 km
RCS: Unknown
Launch date: December 8, 2022
Source: People's Republic of China (PRC)
Launch site: Taiyaun Space Center, China (TSC)

Note: This is a ROCKET BODY
Your satellite tracking list
Your tracking list is empty




NASA's NSSDC Master Catalog

Two Line Element Set (TLE):
1 54641U 22165B   25013.36947878  .00001455  00000-0  26281-3 0  9996
2 54641  98.1053 314.5037 0034510  40.7939 319.5840 14.67563885112339
Source of the keplerian elements: McCants